Overview Statistics Trail Chart Weather Telemetry Raw packets
 

This is the latest recevied weather packets stored in our database for station/object KN6CRX-10. If no packets are shown the sender has not sent any weather packets the latest 10 day(s).

<< 16 17 18 19 20 21 22 >>
Time Temp. Humidity Pressure Rain* Wind** Luminosity Snow
1788307152 23.89° C 34% 1016 hPa 0 mm - 219 W/m² -
1788306847 23.89° C 43% 1016.2 hPa 0 mm - 56 W/m² -
1788306542 23.89° C 42% 1016.1 hPa 0 mm - 44 W/m² -
1788306235 24.44° C 41% 1016.3 hPa 0 mm - 70 W/m² -
1788305931 24.44° C 40% 1016 hPa 0 mm - 91 W/m² -
1788305626 25° C 41% 1015.7 hPa 0 mm - 109 W/m² -
1788305322 25° C 41% 1015.9 hPa 0 mm - 130 W/m² -
1788305017 24.44° C 43% 1015.9 hPa 0 mm - 144 W/m² -
1788304713 24.44° C 44% 1015.9 hPa 0 mm - 107 W/m² -
1788304409 24.44° C 44% 1015.9 hPa 0 mm - 83 W/m² -
1788304105 25° C 43% 1016.1 hPa 0 mm - 106 W/m² -
1788303804 25.56° C 42% 1016.1 hPa 0 mm - 77 W/m² -
1788303500 25.56° C 41% 1016.2 hPa 0 mm - 103 W/m² -
1788303199 26.11° C 39% 1016.2 hPa 0 mm - 91 W/m² -
1788302895 26.67° C 37% 1016 hPa 0 mm - 137 W/m² -
1788302591 27.22° C 37% 1016.1 hPa 0 mm - 198 W/m² -
1788302287 26.67° C 38% 1016.2 hPa 0 mm - 405 W/m² -
1788301982 27.22° C 36% 1016.4 hPa 0 mm - 115 W/m² -
1788301678 27.78° C 36% 1016.2 hPa 0 mm - 618 W/m² -
1788301374 27.78° C 34% 1016.6 hPa 0 mm - 634 W/m² -
1788301069 27.78° C 38% 1016.1 hPa 0 mm - 642 W/m² -
1788300765 27.22° C 37% 1016.6 hPa 0 mm - 672 W/m² -
1788300464 27.22° C 37% 1016.3 hPa 0 mm - 688 W/m² -
1788300164 27.22° C 38% 1016.6 hPa 0 mm - 689 W/m² -
1788299863 26.67° C 38% 1016.8 hPa 0 mm - 679 W/m² -

* Rain latest hour (hover to see other rain measurements)
** Current wind speed in m/s (hover to see current wind gust speed)